map of BIO home
BIO - Airport
Location
City:  Bilbao, Basque Country, Spain
Name:Sondica
ICAO:LEBB
IATA:BIO

Details
Type:Airport (Aerodrome, Airfield)
Use:Public/Civil
Latitude:4318'04"N (43.301097)
Longitude:254'38"W (-2.910607)
Datum:WGS 1984
Elevation:138 ft (42 m)
Variation:0.49W (WMM2015 magnetic declination)
0.13 annual change
Runways:2
Longest:8530 × 148 ft (2600 × 45 m), paved

Time
Time Zone:UTC+1 (DST+2)
Local Time:

Weather
METAR:LEBB 190530Z VRB02KT CAVOK 07/03 Q1014 NOSIG
TAF:LEBB 182300Z 1900/1924 15005KT 9999 SCT050 TX13/1914Z TN06/1906Z PROB30
TEMPO 1900/1903 RA SHRA BKN010 SCT030TCU PROB30
TEMPO 1906/1918 18015G25KT PROB40
TEMPO 1914/1924 RA SHRA BKN010 SCT030TCU

Related Locations
Nearby:
Farthest:NZFT: 12278 mi / 19759 km
Flat Point, WGN, NZ

Find:

   beyond  
but within

Other Information
Maps:
NOTAMs:
Links:
Sources:

  
  • flag of Spain
  • flag of Basque Country
  • flag of Bilbao
  

Sectional Chart

Flight Planning
at skyvector.com

Satellite Image

Google Maps Satellite view

 

Copyright © 2004-2019 Karl L. Swartz. All rights reserved.
The Great Circle Mapper name and logo are trademarks of the Great Circle Mapper.
All other trademarks mentioned herein belong to their respective owners.
Please see credits for attibutions and further copyright information.

  Follow gcmap on Facebook Follow gcmap on Twitter Follow gcmap on Google+ GCmap on LinkedIn

hCard Microformat

Geo Microformat